Tracking 19634 objects as of 21-May-2019
HD Live streaming from Space Station
objects crossing your sky now

SL-23 R/B


SL-23 R/B is no longer on orbit


NORAD ID: 37346
Int'l Code: 2011-001C
Perigee: N/A
Apogee: N/A
Inclination: N/A
Period: N/A
Semi major axis: N/A
RCS: N/A
Launch date: January 20, 2011
Source: Commonwealth of Independent States (former USSR) (CIS)
Launch site: TYURATAM MISSILE AND SPACE COMPLEX (TTMTR)
Decay date: 2011-03-19

Note: This is a ROCKET BODY
aabbcc
Your satellite tracking list
Your tracking list is empty




NASA's NSSDC Master Catalog

Two Line Element Set (TLE):
1 37346U 11001C   11078.88466074  .10058407  12702-4  51303-4 0  9993
2 37346 051.3894 009.8728 0028507 262.9835 097.0450 16.53127796  8332
Source of the keplerian elements: AFSPC